Kaneohe MCBH, HI

11:09 AM HST on October 14, 2019 (GMT -1000)
Kaneohe Bay Marine Corps Air Facility

Weather History for PHNG - September, 2019

Change the Weather History Date:

Saturday, September 14, 2019

  Actual Average Record
Temperature  
Mean Temperature 80 °F -  
Max Temperature 84 °F 81 °F 95 °F (2012)
Min Temperature 77 °F 72 °F 46 °F (1998)
Cooling Degree Days 16    
Growing Degree Days 30 (Base 50)    
Moisture  
Dew Point 75 °F    
Average Humidity 80    
Maximum Humidity 97    
Minimum Humidity 69    
Precipitation  
Precipitation 0.20 in - - ()
Sea Level Pressure  
Sea Level Pressure 29.92 in    
Wind  
Wind Speed 4 mph ()    
Max Wind Speed 13 mph    
Max Gust Speed 18 mph    
Visibility 9.6 miles    
Events      
Averages and records for this station are not official NWS values.
T = Trace of Precipitation, MM = Missing Value Source: Averaged Metar Reports

Daily Weather History Graph

Daily Weather History Graph

Search for Another Location

Airport or City:

Astronomy

Sep. 14, 2019 Rise Set
Actual Time 6:17 AM HST 6:35 PM HST
Civil Twilight 5:55 AM HST 6:57 PM HST
Nautical Twilight 5:29 AM HST 7:23 PM HST
Astronomical Twilight 5:03 AM HST 7:49 PM HST
Moon 7:21 PM HST 6:45 AM HST
Length of Visible Light 13h 01m
Length of Day
12h 17m
Full, 100% of the Moon is Illuminated
Sep 14
Full
Sep 21
Last Quarter
Sep 28
New
Oct 5
First Quarter
Oct 13
Full

Hourly Weather History & Observations

Time (HST) Temp. Heat Index Dew Point Humidity Pressure Visibility Wind Dir Wind Speed Gust Speed Precip Events Conditions
12:57 AM 79.0 °F - 72.0 °F 79% 29.91 in 10.0 mi Calm Calm - N/A   Scattered Clouds
1:57 AM 78.1 °F - 73.9 °F 87% 29.91 in 10.0 mi Calm Calm - N/A   Mostly Cloudy
2:34 AM 79.0 °F - 73.9 °F 84% 29.92 in 10.0 mi Calm Calm - N/A   Mostly Cloudy
2:50 AM 79.0 °F - 73.9 °F 84% 29.91 in 10.0 mi WSW 3.5 mph - N/A   Mostly Cloudy
2:57 AM 79.0 °F - 73.9 °F 84% 29.90 in 10.0 mi Calm Calm - N/A   Mostly Cloudy
3:15 AM 78.1 °F - 73.9 °F 87% 29.91 in 10.0 mi Calm Calm - N/A   Scattered Clouds
3:57 AM 77.0 °F - 73.9 °F 90% 29.90 in 10.0 mi Calm Calm - N/A   Scattered Clouds
4:25 AM 78.1 °F - 73.9 °F 87% 29.91 in 10.0 mi Calm Calm - N/A   Overcast
4:57 AM 78.1 °F - 73.9 °F 87% 29.91 in 10.0 mi WSW 4.6 mph - N/A   Mostly Cloudy
5:07 AM 79.0 °F - 73.9 °F 84% 29.92 in 10.0 mi Calm Calm - N/A   Mostly Cloudy
5:57 AM 78.1 °F - 73.9 °F 87% 29.91 in 10.0 mi Calm Calm - N/A   Overcast
6:18 AM 78.1 °F - 73.9 °F 87% 29.93 in 10.0 mi Calm Calm - N/A   Mostly Cloudy
6:57 AM 78.1 °F - 73.9 °F 87% 29.92 in 10.0 mi Calm Calm - N/A   Partly Cloudy
7:57 AM 81.0 °F 86.7 °F 75.0 °F 82% 29.94 in 10.0 mi Calm Calm - N/A   Scattered Clouds
8:57 AM 82.0 °F 87.9 °F 73.9 °F 76% 29.95 in 10.0 mi WNW 3.5 mph - N/A   Partly Cloudy
9:57 AM 84.0 °F 91.9 °F 75.0 °F 74% 29.95 in 10.0 mi NNE 6.9 mph - N/A   Mostly Cloudy
10:07 AM 84.9 °F 93.3 °F 75.0 °F 72% 29.96 in 10.0 mi NNE 6.9 mph - N/A   Mostly Cloudy
10:57 AM 84.9 °F 92.1 °F 73.9 °F 69% 29.94 in 10.0 mi ENE 10.4 mph - N/A   Mostly Cloudy
11:57 AM 84.9 °F 92.1 °F 73.9 °F 69% 29.93 in 10.0 mi NE 10.4 mph - N/A   Mostly Cloudy
12:05 PM 84.0 °F 91.9 °F 75.0 °F 74% 29.94 in 10.0 mi NE 10.4 mph - N/A   Overcast
12:37 PM 82.0 °F 87.9 °F 73.9 °F 76% 29.94 in 10.0 mi SSW 3.5 mph - N/A   Overcast
12:57 PM 81.0 °F 87.9 °F 77.0 °F 88% 29.92 in 2.5 mi WSW 6.9 mph - 0.06 in   Overcast
1:05 PM 81.0 °F 88.6 °F 78.1 °F 91% 29.94 in 5.0 mi WSW 8.1 mph - 0.05 in   Overcast
1:57 PM 84.0 °F 96.0 °F 79.0 °F 85% 29.89 in 5.0 mi East 9.2 mph - 0.14 in   Haze
2:52 PM 84.2 °F 96.1 °F 78.8 °F 84% 29.91 in 10.0 mi East 8.1 mph - N/A   Overcast
2:57 PM 84.0 °F 96.0 °F 79.0 °F 85% 29.89 in 10.0 mi East 6.9 mph - N/A   Overcast
3:57 PM 84.9 °F 97.5 °F 79.0 °F 82% 29.88 in 10.0 mi ENE 10.4 mph - N/A   Mostly Cloudy
4:04 PM 82.9 °F 97.1 °F 82.0 °F 97% 29.90 in 10.0 mi ENE 12.7 mph - N/A   Mostly Cloudy
4:57 PM 82.9 °F 90.8 °F 75.9 °F 79% 29.88 in 10.0 mi ENE 10.4 mph - N/A   Mostly Cloudy
5:17 PM 82.9 °F 90.8 °F 75.9 °F 79% 29.90 in 10.0 mi East 9.2 mph - N/A   Overcast
5:57 PM 82.9 °F 90.8 °F 75.9 °F 79% 29.89 in 10.0 mi East 9.2 mph - N/A   Overcast
6:12 PM 82.9 °F 90.8 °F 75.9 °F 79% 29.91 in 10.0 mi ENE 9.2 mph - N/A   Overcast
6:52 PM 82.4 °F 89.5 °F 75.2 °F 79% 29.93 in 10.0 mi East 5.8 mph - N/A   Overcast
6:57 PM 82.9 °F 90.2 °F 75.0 °F 77% 29.92 in 10.0 mi East 4.6 mph - N/A   Mostly Cloudy
7:25 PM 82.0 °F 87.9 °F 73.9 °F 76% 29.93 in 10.0 mi East 9.2 mph - N/A   Scattered Clouds
7:57 PM 82.0 °F 88.6 °F 75.0 °F 79% 29.93 in 10.0 mi East 4.6 mph - N/A   Scattered Clouds
8:08 PM 82.9 °F 90.2 °F 75.0 °F 77% 29.94 in 10.0 mi East 8.1 mph - N/A   Overcast
8:32 PM 82.0 °F 86.7 °F 72.0 °F 71% 29.94 in 10.0 mi East 9.2 mph - N/A   Mostly Cloudy
8:57 PM 82.0 °F 87.4 °F 73.0 °F 74% 29.94 in 10.0 mi East 10.4 mph - N/A   Clear
9:09 PM 82.0 °F 87.4 °F 73.0 °F 74% 29.96 in 10.0 mi East 12.7 mph 18.4 mph N/A   Mostly Cloudy
9:57 PM 82.0 °F 87.9 °F 73.9 °F 76% 29.95 in 10.0 mi East 6.9 mph 17.3 mph N/A   Mostly Cloudy
10:04 PM 82.0 °F 87.9 °F 73.9 °F 76% 29.96 in 10.0 mi Variable 4.6 mph - N/A   Partly Cloudy
10:33 PM 82.0 °F 87.9 °F 73.9 °F 76% 29.96 in 10.0 mi East 8.1 mph - N/A   Mostly Cloudy
10:55 PM 82.4 °F 88.2 °F 73.4 °F 74% 29.95 in 10.0 mi East 8.1 mph - N/A   Scattered Clouds
10:57 PM 82.0 °F 87.9 °F 73.9 °F 76% 29.94 in 10.0 mi Variable 5.8 mph - N/A   Scattered Clouds
11:57 PM 82.0 °F 87.4 °F 73.0 °F 74% 29.93 in 10.0 mi East 6.9 mph - N/A   Clear